Location: Limoges
(45.8354°N, 1.2645°E)
Time: 10:54:17
(UTC+01:00)

Vanguard 2 Rocket - All Passes

Search period start: 22 February 2024 00:00
Search period end: 03 March 2024 00:00
Orbit: 554 x 3310 km, 32.9° (Epoch: 22 February)

Date Brightness Start Highest point End Pass type
(mag) Time Alt. Az. Time Alt. Az. Time Alt. Az.
22 Feb - 13:28:00 10° SSE 13:31:07 12° SE 13:34:40 10° ESE daylight
22 Feb - 15:33:27 10° SSW 15:42:53 36° SSE 15:57:21 10° E daylight
22 Feb - 17:44:40 10° WSW 17:57:19 51° S 18:15:45 10° ESE daylight
22 Feb - 19:58:12 10° W 20:13:24 46° SSW 20:31:51 10° SE visible
22 Feb - 22:14:39 10° W 22:29:00 28° SW 22:43:36 10° SSE visible
23 Feb - 14:33:21 10° SSW 14:40:56 26° SE 14:52:07 10° E daylight
23 Feb - 16:43:18 10° SW 16:54:15 47° SSE 17:11:14 10° ESE daylight
23 Feb - 18:55:52 10° WSW 19:09:45 49° S 19:28:27 10° ESE visible
23 Feb - 21:10:48 10° W 21:25:41 34° SSW 21:42:13 10° SSE visible
23 Feb - 23:32:23 10° WSW 23:40:11 14° SW 23:47:55 10° SSW visible
24 Feb - 13:34:19 10° S 13:39:29 17° SE 13:46:16 10° ESE daylight
24 Feb - 15:42:22 10° SW 15:51:40 40° SSE 16:06:27 10° E daylight
24 Feb - 17:54:01 10° WSW 18:06:19 50° S 18:24:28 10° ESE daylight
24 Feb - 20:07:47 10° W 20:22:12 40° SSW 20:39:52 10° SE visible
24 Feb - 22:25:25 10° W 22:37:22 21° SW 22:49:46 10° S visible
25 Feb - 14:41:56 10° SSW 14:49:37 31° SSE 15:01:32 10° E daylight
25 Feb - 16:52:35 10° WSW 17:03:14 48° S 17:20:04 10° ESE daylight
25 Feb - 19:05:23 10° W 19:18:40 45° SSW 19:36:44 10° SE visible
25 Feb - 21:20:56 10° W 21:34:15 27° SW 21:49:13 10° SSE visible
26 Feb - 13:42:12 10° S 13:48:03 21° SE 13:56:24 10° E daylight
26 Feb - 15:51:31 10° SW 16:00:36 43° SSE 16:15:26 10° ESE daylight
26 Feb - 18:03:29 10° WSW 18:15:20 47° S 18:32:58 10° ESE daylight
26 Feb - 20:17:37 10° W 20:30:57 33° SSW 20:47:23 10° SSE visible
26 Feb - 22:37:58 10° WSW 22:45:46 14° SW 22:53:52 10° SSW visible
27 Feb - 12:44:06 10° SSE 12:46:53 12° SE 12:50:09 10° ESE daylight
27 Feb - 14:50:52 10° SW 14:58:28 35° SSE 15:10:43 10° E daylight
27 Feb - 17:01:59 10° WSW 17:12:19 47° S 17:28:44 10° ESE daylight
27 Feb - 19:15:03 10° W 19:27:36 38° SSW 19:44:38 10° SE visible
27 Feb - 21:31:47 10° WSW 21:42:49 20° SW 21:55:09 10° S visible
28 Feb - 13:50:43 10° SSW 13:56:48 26° SSE 14:05:59 10° E daylight
28 Feb - 16:00:50 10° WSW 16:09:40 44° S 16:24:16 10° ESE daylight
28 Feb - 18:13:04 10° WSW 18:24:23 42° SSW 18:41:10 10° SE daylight
28 Feb - 20:27:50 10° W 20:39:42 26° SSW 20:54:11 10° SSE visible
29 Feb - 12:51:23 10° S 12:55:32 16° SE 13:00:59 10° ESE daylight
29 Feb - 15:00:02 10° SW 15:07:29 38° SSE 15:19:44 10° ESE daylight
29 Feb - 17:11:30 10° WSW 17:21:26 44° S 17:37:11 10° ESE daylight
29 Feb - 19:24:58 10° W 19:36:31 31° SSW 19:51:59 10° SSE visible
29 Feb - 21:44:34 10° WSW 21:51:25 13° SW 21:58:49 10° SSW visible
01 Mar - 13:59:37 10° SW 14:05:43 30° SSE 14:15:17 10° ESE daylight
01 Mar - 16:10:18 10° WSW 16:18:50 43° S 16:32:56 10° ESE daylight
01 Mar - 18:22:49 10° WSW 18:33:26 36° SSW 18:48:57 10° SE daylight
01 Mar - 20:38:53 10° WSW 20:48:28 19° SW 20:59:49 10° S visible
02 Mar - 12:59:43 10° SSW 13:04:20 21° SSE 13:10:52 10° ESE daylight
02 Mar - 15:09:23 10° WSW 15:16:36 39° S 15:28:36 10° ESE daylight
02 Mar - 17:21:09 10° WSW 17:30:35 38° S 17:45:20 10° SE daylight
02 Mar - 19:35:21 10° WSW 19:45:28 24° SSW 19:58:35 10° SSE visible
